Location: Ponte Samoggia
(44.5667°N, 11.1333°E)
Time: 23:26:02
(UTC+00:00)

Cosmos 2251 Rocket - Pass Details

Date: 26 May 2022
Orbit: 764 x 791 km, 74.0° (Epoch: 26 June)

Event Time Altitude Azimuth Distance (km) Brightness Sun altitude
Rises 01:57:49 0° 338° (NNW) 3,248 7.2 -14.3°
Reaches altitude 10° 02:00:12 10° 339° (NNW) 2,320 6.4 -14.0°
Maximum altitude 02:05:29 90° 262° (W) 779 3.5 -13.4°
Drops below altitude 10° 02:10:46 10° 161° (SSE) 2,320 5.7 -12.8°
Sets 02:13:08 0° 161° (SSE) 3,248 6.5 -12.5°
